Location: Ostrava
(49.8330°N, 18.2830°E)
Time: 03:55:15
(UTC+02:00)

ISS - Pass Details

Date: 20 May 2021
Orbit: 417 x 422 km, 51.6° (Epoch: 13 June)

Event Time Altitude Azimuth Distance (km) Brightness Sun altitude
Rises 22:55:46 0° 278° (W) 2,366 0.6 -16.0°
Reaches altitude 10° 22:57:53 10° 281° (WNW) 1,503 -0.4 -16.2°
Maximum altitude 23:01:14 62° 4° (N) 477 -3.3 -16.4°
Enters shadow 23:04:12 13° 85° (E) 1,347 -1.4 -16.6°
